Location: Juzet
(42.9779°N, 0.7597°E)
Time: 02:53:59
(UTC+00:00)

RESURS DK-1 - Pass Details

Date: 14 July 2020
Orbit: 556 x 562 km, 69.9° (Epoch: 04 August)

Event Time Altitude Azimuth Distance (km) Brightness Sun altitude
Rises 23:57:59 0° 321° (NW) 2,753 6.7 -25.4°
Reaches altitude 10° 00:00:30 10° 307° (NW) 1,853 5.4 -25.4°
Enters shadow 00:02:32 20° 282° (WNW) 1,314 4.3 -25.4°
